Weather in Arka

Russia / Khabarovsk Krai     60°04′55″N   142°20′08″E
temp.,
°C
wind,
m/s
gust,
m/s
humid.,
%
clouds,
%
prec.,
mm/h
press.,
hPa
HPBL,
m
27 february, sat
sat2701:00−26wnw32760 0.0 102620
04:00−27wnw22770 0.0 102619
07:00−28wnw22740 0.0 102619
10:00−24wnw22700 0.0 102694
13:00−20wnw22630 0.0 1025266
16:00−18w12730 0.0 1023185
19:00−24wnw22770 0.0 102520
22:00−25nnw22760 0.0 102520
28 february, sun
sun2801:00−25nnw22760 0.0 102420
04:00−25n33780 0.0 102220
07:00−26n347932 0.0 102222
10:00−22n337841 0.0 1020110
13:00−18n3474100 0.0 1018291
16:00−16n237885 0.0 1016219
19:00−21nw227896 0.0 101620
22:00−22nw227489 0.0 101520
1 march, mon
mon101:00−24nw227238 0.0 101420
04:00−24wnw337359 0.0 101320
07:00−23wnw327394 0.0 101320
10:00−21wnw337397 0.0 1012142
13:00−18wnw336899 0.0 1011348
16:00−18w2371100 0.0 1011377
19:00−20wnw2280100 0.0 101220
22:00−21wnw2284100 0.0 101321
2 march, tue
tue201:00−22wnw2297100 0.1 101326
04:00−22wnw2297100 0.3 101325
07:00−23wnw2298100 0.2 101428
10:00−21wnw2295100 0.4 1015181
13:00−18wnw1189100 0.3 1015248
16:00−17se2489100 0.5 1015565
19:00−19ese1199100 0.3 101620
22:00−20ne01100100 0.5 101820
3 march, wed
wed301:00−21nnw11100100 0.3 101720
04:00−22nw1299100 0.4 101720
07:00−22nnw1299100 0.2 101720
10:00−20n0194100 0.4 1016193
13:00−19se3291100 0.3 1014409
16:00−20se2394100 0.4 1012309
19:00−25ese11100100 0.1 101220
22:00−25w11100100 0.1 101020